User: anonymous   Login
Location: Altleiningen
(49.5078°N, 8.0741°E)
Time: 20:48:31
(UTC+00:00)
Language:

Cosmos 2237 - Orbit

View from above orbital plane
View from above orbital plane
View from above satellite
View from above satellite

Ground track
Ground track

The orbit data is extracted from the following two-line orbital elements,

1 22565U 93016A   21125.42317969 -.00000037  00000-0  61226-5 0  9994
2 22565  70.8477 298.1540 0006945 182.5037 177.6050 14.12514518449740
Epoch (UTC): 05 May 2021 10:09:22
Eccentricity: 0.0006945
inclination: 70.8477°
perigee height: 846 km
apogee height: 856 km
right ascension of ascending node: 298.1540°
argument of perigee: 182.5037°
revolutions per day: 14.12514518
mean anomaly at epoch: 177.6050°
orbit number at epoch: 44974

The dashed part of the orbit path shows where the satellite is in the earth's shadow,  

DLR